Weather Roundup
Issued by NWS

Home | Current Version | Previous Version | Graphics & Text | Print | Product List | Glossary Off
Versions: 1 2 3 4 5 6 7 8 9 10 11 12 13 14 15 16 17 18 19 20 21 22 23 24 25 26 27 28 29 30 31 32 33 34 35 36 37 38 39 40 41 42 43 44 45 46 47 48 49 50

913
NZUS93 KARX 291559
HRRWXR

CURRENT HOURLY OBSERVATIONS ACROSS
MUCH OF THE UPPER MISSISSIPPI VALLEY
NATIONAL WEATHER SERVICE LA CROSSE WI
1100 AM CDT MON AUG 29 2016


...SOUTHEAST MINNESOTA...


CITY           SKY/WX    TMP DP  RH WIND       PRES   REMARKS
ROCHESTER      MOSUNNY   79  72  79 VRB5      30.27S
ROCHESTER/MAYO FAIR      79  70  74 CALM      30.26S
WINONA         PTSUNNY   77  68  73 N6        30.25R
AUSTIN         PTSUNNY   75  70  83 S3        30.26R
ALBERT LEA     CLOUDY    73  72  94 CALM      30.26R FOG
DODGE CENTER   PTSUNNY   79  72  78 CALM      30.26S
PRESTON        PTSUNNY   77  69  77 CALM      30.28R
OWATONNA       PTSUNNY   73  70  88 CALM      30.25S FOG
FARIBAULT      MOSUNNY   79  70  73 CALM      30.25S
$$

...ELSEWHERE IN MINNESOTA...


CITY           SKY/WX    TMP DP  RH WIND       PRES   REMARKS
MINNEAPOLIS    CLOUDY    78  69  73 E9        30.22F
INTNL FALLS    PTSUNNY   69  63  81 SW8       30.11R
DULUTH         CLOUDY    70  63  78 W6        30.15R
RED WING       CLOUDY    75  70  83 S6        30.24S
REDWOOD FALLS  MOSUNNY   76  66  71 SE9       30.20F
MANKATO          N/A    N/A N/A N/A MISG        N/A
WORTHINGTON    NOT AVBL
FAIRMONT       PTSUNNY   77  71  82 SE6       30.24R
$$

...SOUTHWEST WISCONSIN...


CITY           SKY/WX    TMP DP  RH WIND       PRES   REMARKS
LA CROSSE      MOSUNNY   82  71  69 SE5       30.24S
PRAIRIE DU CHI MOSUNNY   74  69  86 CALM      30.25R
BOSCOBEL       CLOUDY    74  70  87 CALM      30.26R
LONE ROCK      NOT AVBL
PLATTEVILLE    CLOUDY    72  72  99 E6        30.26R
FORT MC COY    MOSUNNY   77  69  74 CALM      30.26S
MAUSTON-NEW LI CLOUDY    72  69  90 CALM      30.26F
VIROQUA        FAIR      74  69  85 CALM      30.28R
WIS DELLS      NOT AVBL
$$

...ELSEWHERE IN WISCONSIN...


CITY           SKY/WX    TMP DP  RH WIND       PRES   REMARKS
MILWAUKEE      MOSUNNY   78  65  63 VRB6      30.27S
MADISON        CLOUDY    78  68  71 SW3       30.26R
GREEN BAY      PTSUNNY   76  69  79 MISG      30.27S
EAU CLAIRE     NOT AVBL
BLACK RVR FLS  PTSUNNY   75  71  88 S3        30.25S
MEDFORD        MOSUNNY   73  68  82 CALM      30.27S
WAUSAU         CLOUDY    72  67  84 S5        30.26F
WIS RAPIDS     CLOUDY    78  69  73 W6        30.28S
MARSHFIELD     PTSUNNY   75  67  76 CALM      30.27R
RICE LAKE      MOSUNNY   76  66  71 SE12      30.23F
$$

...NORTHEAST IOWA...


CITY           SKY/WX    TMP DP  RH WIND       PRES   REMARKS
WATERLOO       CLOUDY    73  68  84 E5        30.24R
DUBUQUE        CLOUDY    74  70  87 SE6       30.27R
DECORAH        MOSUNNY   77  72  83 VRB5      30.26R
MASON CITY     CLOUDY    80  71  74 SE6       30.26R
CHARLES CITY   CLOUDY    77  73  88 VRB5      30.26R
OELWEIN        MOSUNNY   73  72  94 SE6       30.26S
$$

...ELSEWHERE IN IOWA...


CITY           SKY/WX    TMP DP  RH WIND       PRES   REMARKS
DES MOINES     CLOUDY    77  73  87 S7        30.22R
IOWA CITY      LGT RAIN  76  72  87 CALM      30.24R
FORT DODGE     PTSUNNY   75  70  83 S5        30.24R
MARSHALLTOWN   CLOUDY    76  73  91 SE6       30.23R
CEDAR RAPIDS   CLOUDY    76  74  93 E3        30.24R
$$

...NORTHERN ILLINOIS...


CITY           SKY/WX    TMP DP  RH WIND       PRES   REMARKS
CHICAGO-OHARE  PTSUNNY   82  70  66 SE8       30.25R
CHICAGO-MIDWAY PTSUNNY   83  70  64 E8        30.25R
MOLINE         SUNNY     80  72  76 E5        30.23R
ROCKFORD       CLOUDY    81  71  71 SE8       30.26R
PEORIA         MOSUNNY   82  74  76 E3        30.23R
$$

NOTE: "FAIR" INDICATES FEW OR NO CLOUDS BELOW 12,000 FEET WITH NO
SIGNIFICANT WEATHER AND/OR OBSTRUCTIONS TO VISIBILITY. WIND
SPEEDS ARE IN MILES-PER-HOUR.




USA.gov is the U.S. government's official web portal to all federal, state and local government web resources and services.